Time,TemperatureF,DewpointF,PressureIn,WindDirection,WindDirectionDegrees,WindSpeedMPH,WindSpeedGustMPH,Humidity,HourlyPrecipIn,Conditions,Clouds,dailyrainin,SoftwareType,DateUTC
2013-01-05 00:00:00,31.7,25.0,30.05,NW,315,13.6,20.1,76,2.59,,,0.98,WUHU216HW,2013-01-05 05:00:00,
2013-01-05 00:02:00,31.7,25.0,30.06,West,270,12.5,20.1,76,2.59,,,0.03,WUHU216HW,2013-01-05 05:02:00,
2013-01-05 00:07:00,31.7,25.0,30.05,West,270,18.1,20.6,76,2.59,,,0.03,WUHU216HW,2013-01-05 05:07:00,
2013-01-05 00:12:00,31.7,25.0,30.06,West,270,13.4,23.7,76,2.59,,,0.03,WUHU216HW,2013-01-05 05:12:00,
2013-01-05 00:17:00,31.7,25.0,30.06,WSW,248,6.9,23.7,76,2.59,,,0.03,WUHU216HW,2013-01-05 05:17:00,
2013-01-05 00:22:00,31.7,25.0,30.06,WSW,248,6.9,18.6,76,2.59,,,0.03,WUHU216HW,2013-01-05 05:22:00,
2013-01-05 00:27:00,31.9,25.5,30.06,West,270,13.2,23.5,77,2.59,,,0.03,WUHU216HW,2013-01-05 05:27:00,
2013-01-05 00:32:00,31.9,25.5,30.07,SW,225,8.7,23.5,77,2.59,,,0.03,WUHU216HW,2013-01-05 05:32:00,
2013-01-05 00:37:00,31.9,25.5,30.07,West,270,9.8,19.2,77,2.59,,,0.03,WUHU216HW,2013-01-05 05:37:00,
2013-01-05 00:42:00,31.9,25.5,30.07,West,270,8.1,19.5,77,2.59,,,0.03,WUHU216HW,2013-01-05 05:42:00,
2013-01-05 00:47:00,31.9,25.8,30.07,NW,315,10.1,19.5,78,2.59,,,0.03,WUHU216HW,2013-01-05 05:47:00,
2013-01-05 00:52:00,32.0,26.0,30.07,NW,315,8.9,17.4,78,2.59,,,0.03,WUHU216HW,2013-01-05 05:52:00,
2013-01-05 00:57:00,32.0,26.0,30.07,NW,315,11.4,15.2,78,2.59,,,0.03,WUHU216HW,2013-01-05 05:57:00,
2013-01-05 01:02:00,32.0,26.0,30.07,West,270,13.0,19.5,78,2.59,,,0.08,WUHU216HW,2013-01-05 06:02:00,
2013-01-05 01:07:00,32.0,25.7,30.07,WSW,248,9.2,19.5,77,2.59,,,0.08,WUHU216HW,2013-01-05 06:07:00,
2013-01-05 01:12:00,32.0,26.0,30.07,WNW,293,8.1,17.9,78,2.59,,,0.08,WUHU216HW,2013-01-05 06:12:00,
2013-01-05 01:17:00,32.0,25.7,30.08,West,270,11.6,16.8,77,2.59,,,0.08,WUHU216HW,2013-01-05 06:17:00,
2013-01-05 01:22:00,31.9,25.5,30.08,NW,315,9.4,23.0,77,2.59,,,0.08,WUHU216HW,2013-01-05 06:22:00,
2013-01-05 01:27:00,31.9,25.5,30.08,WNW,293,16.1,23.0,77,2.59,,,0.08,WUHU216HW,2013-01-05 06:27:00,
2013-01-05 01:32:00,31.9,25.5,30.09,West,270,11.4,16.3,77,2.59,,,0.08,WUHU216HW,2013-01-05 06:32:00,
2013-01-05 01:37:00,31.9,25.5,30.09,WNW,293,9.2,16.3,77,2.59,,,0.08,WUHU216HW,2013-01-05 06:37:00,
2013-01-05 01:42:00,31.9,25.5,30.09,NNW,338,9.8,16.1,77,2.59,,,0.08,WUHU216HW,2013-01-05 06:42:00,
2013-01-05 01:47:00,31.9,25.5,30.09,NW,315,12.8,17.2,77,2.59,,,0.08,WUHU216HW,2013-01-05 06:47:00,
2013-01-05 01:52:00,31.7,25.3,30.10,WSW,248,7.8,17.2,77,2.59,,,0.08,WUHU216HW,2013-01-05 06:52:00,
2013-01-05 01:57:00,31.7,25.0,30.10,WNW,293,13.6,17.2,76,2.59,,,0.08,WUHU216HW,2013-01-05 06:57:00,
2013-01-05 02:02:00,31.7,25.0,30.10,WSW,248,12.8,17.2,76,2.59,,,0.12,WUHU216HW,2013-01-05 07:02:00,
2013-01-05 02:07:00,31.5,24.9,30.11,WSW,248,10.1,16.8,76,2.59,,,0.12,WUHU216HW,2013-01-05 07:07:00,
2013-01-05 02:12:00,31.7,25.0,30.11,West,270,13.0,16.8,76,2.59,,,0.12,WUHU216HW,2013-01-05 07:12:00,
2013-01-05 02:17:00,31.5,24.9,30.11,WSW,248,8.1,16.3,76,2.59,,,0.12,WUHU216HW,2013-01-05 07:17:00,
2013-01-05 02:22:00,31.5,24.9,30.12,SW,225,9.4,16.3,76,2.59,,,0.12,WUHU216HW,2013-01-05 07:22:00,
2013-01-05 02:27:00,31.5,24.9,30.12,NNE,23,14.1,16.1,76,2.59,,,0.12,WUHU216HW,2013-01-05 07:27:00,
2013-01-05 02:32:00,31.5,24.9,30.11,WNW,293,10.3,15.4,76,2.59,,,0.12,WUHU216HW,2013-01-05 07:32:00,
2013-01-05 02:37:00,31.7,25.0,30.12,North,0,10.7,17.9,76,2.59,,,0.12,WUHU216HW,2013-01-05 07:37:00,
2013-01-05 02:42:00,31.7,25.0,30.12,WSW,248,7.8,17.9,76,2.59,,,0.12,WUHU216HW,2013-01-05 07:42:00,
2013-01-05 02:47:00,31.7,25.0,30.12,West,270,15.7,17.4,76,2.59,,,0.12,WUHU216HW,2013-01-05 07:47:00,
2013-01-05 02:52:00,31.7,25.0,30.12,West,270,9.6,17.4,76,2.59,,,0.12,WUHU216HW,2013-01-05 07:52:00,
2013-01-05 02:57:00,31.7,25.0,30.12,West,270,13.0,17.0,76,2.59,,,0.12,WUHU216HW,2013-01-05 07:57:00,
2013-01-05 03:02:00,31.7,25.0,30.12,West,270,11.0,13.4,76,2.59,,,0.16,WUHU216HW,2013-01-05 08:02:00,
2013-01-05 03:07:00,31.7,25.0,30.13,West,270,12.1,16.1,76,2.59,,,0.16,WUHU216HW,2013-01-05 08:07:00,
2013-01-05 03:12:00,31.7,25.0,30.13,West,270,6.5,16.1,76,2.59,,,0.16,WUHU216HW,2013-01-05 08:12:00,
2013-01-05 03:17:00,31.7,25.0,30.13,WSW,248,9.4,14.8,76,2.59,,,0.16,WUHU216HW,2013-01-05 08:17:00,
2013-01-05 03:22:00,31.7,25.0,30.13,West,270,13.2,14.8,76,2.59,,,0.16,WUHU216HW,2013-01-05 08:22:00,
2013-01-05 03:27:00,31.5,24.9,30.13,West,270,6.9,15.7,76,2.59,,,0.16,WUHU216HW,2013-01-05 08:27:00,
2013-01-05 03:32:00,31.5,24.9,30.13,WSW,248,5.8,15.7,76,2.59,,,0.16,WUHU216HW,2013-01-05 08:32:00,
2013-01-05 03:37:00,31.5,24.9,30.13,WNW,293,8.3,12.1,76,2.59,,,0.16,WUHU216HW,2013-01-05 08:37:00,
2013-01-05 03:42:00,31.5,25.1,30.13,West,270,10.7,15.7,77,2.59,,,0.16,WUHU216HW,2013-01-05 08:42:00,
2013-01-05 03:47:00,31.7,25.3,30.13,SW,225,7.4,15.7,77,2.59,,,0.16,WUHU216HW,2013-01-05 08:47:00,
2013-01-05 03:52:00,31.7,25.3,30.14,West,270,10.7,15.4,77,2.59,,,0.16,WUHU216HW,2013-01-05 08:52:00,
2013-01-05 03:57:00,31.7,25.3,30.14,WNW,293,8.5,15.4,77,2.59,,,0.16,WUHU216HW,2013-01-05 08:57:00,
2013-01-05 04:02:00,31.7,25.3,30.14,West,270,6.3,12.3,77,2.59,,,0.20,WUHU216HW,2013-01-05 09:02:00,
2013-01-05 04:07:00,31.7,25.3,30.14,West,270,4.7,14.1,77,2.59,,,0.20,WUHU216HW,2013-01-05 09:07:00,
2013-01-05 04:12:00,31.9,25.8,30.14,West,270,6.0,14.1,78,2.59,,,0.20,WUHU216HW,2013-01-05 09:12:00,
2013-01-05 04:17:00,31.9,25.5,30.15,West,270,13.4,15.7,77,2.59,,,0.20,WUHU216HW,2013-01-05 09:17:00,
2013-01-05 04:22:00,31.9,25.5,30.15,NNW,338,10.3,15.7,77,2.59,,,0.20,WUHU216HW,2013-01-05 09:22:00,
2013-01-05 04:27:00,31.9,25.5,30.15,WSW,248,12.5,12.5,77,2.59,,,0.20,WUHU216HW,2013-01-05 09:27:00,
2013-01-05 04:32:00,31.9,25.8,30.15,NW,315,11.4,15.7,78,2.59,,,0.20,WUHU216HW,2013-01-05 09:32:00,
2013-01-05 04:37:00,31.9,25.8,30.15,SW,225,12.3,15.7,78,2.59,,,0.20,WUHU216HW,2013-01-05 09:37:00,
2013-01-05 04:42:00,32.0,26.0,30.15,WNW,293,8.9,17.9,78,2.59,,,0.20,WUHU216HW,2013-01-05 09:42:00,
2013-01-05 04:47:00,32.0,26.0,30.15,WSW,248,6.5,17.9,78,2.59,,,0.20,WUHU216HW,2013-01-05 09:47:00,
2013-01-05 04:52:00,32.0,26.0,30.16,NW,315,10.1,14.3,78,2.59,,,0.20,WUHU216HW,2013-01-05 09:52:00,
2013-01-05 04:57:00,31.9,25.8,30.16,West,270,9.2,14.3,78,2.59,,,0.20,WUHU216HW,2013-01-05 09:57:00,
2013-01-05 05:02:00,31.9,25.8,30.16,NW,315,4.7,12.1,78,2.59,,,0.24,WUHU216HW,2013-01-05 10:02:00,
2013-01-05 05:07:00,31.9,25.8,30.16,NW,315,12.8,13.0,78,2.59,,,0.24,WUHU216HW,2013-01-05 10:07:00,
2013-01-05 05:12:00,31.9,25.8,30.16,West,270,13.9,13.9,78,2.59,,,0.24,WUHU216HW,2013-01-05 10:12:00,
2013-01-05 05:17:00,31.9,25.8,30.16,West,270,6.9,16.1,78,2.59,,,0.24,WUHU216HW,2013-01-05 10:17:00,
2013-01-05 05:22:00,31.9,25.8,30.16,West,270,11.0,16.1,78,2.59,,,0.24,WUHU216HW,2013-01-05 10:22:00,
2013-01-05 05:27:00,31.9,25.8,30.16,West,270,15.4,15.4,78,2.59,,,0.24,WUHU216HW,2013-01-05 10:27:00,
2013-01-05 05:32:00,31.9,25.8,30.17,WNW,293,12.1,15.4,78,2.59,,,0.24,WUHU216HW,2013-01-05 10:32:00,
2013-01-05 05:37:00,31.9,25.8,30.17,WNW,293,7.4,15.4,78,2.59,,,0.24,WUHU216HW,2013-01-05 10:37:00,
2013-01-05 05:42:00,31.9,25.8,30.17,West,270,9.8,13.0,78,2.59,,,0.24,WUHU216HW,2013-01-05 10:42:00,
2013-01-05 05:47:00,31.9,25.8,30.17,NW,315,13.4,13.4,78,2.59,,,0.24,WUHU216HW,2013-01-05 10:47:00,
2013-01-05 05:52:00,31.9,25.8,30.18,West,270,5.6,13.4,78,2.59,,,0.24,WUHU216HW,2013-01-05 10:52:00,
2013-01-05 05:57:00,31.9,25.8,30.18,WNW,293,9.6,13.4,78,2.59,,,0.24,WUHU216HW,2013-01-05 10:57:00,
2013-01-05 06:02:00,31.9,26.1,30.18,West,270,11.0,11.0,79,2.59,,,0.28,WUHU216HW,2013-01-05 11:02:00,
2013-01-05 06:07:00,31.9,26.1,30.19,West,270,11.9,16.6,79,2.59,,,0.28,WUHU216HW,2013-01-05 11:07:00,
2013-01-05 06:12:00,31.9,26.1,30.20,West,270,7.8,16.6,79,2.59,,,0.28,WUHU216HW,2013-01-05 11:12:00,
2013-01-05 06:17:00,32.0,26.3,30.19,West,270,10.1,12.1,79,2.59,,,0.28,WUHU216HW,2013-01-05 11:17:00,
2013-01-05 06:22:00,32.0,26.3,30.20,West,270,10.5,14.5,79,2.59,,,0.28,WUHU216HW,2013-01-05 11:22:00,
2013-01-05 06:27:00,32.0,26.3,30.20,WSW,248,7.6,14.5,79,2.59,,,0.28,WUHU216HW,2013-01-05 11:27:00,
2013-01-05 06:32:00,32.0,26.3,30.20,West,270,9.2,14.3,79,2.59,,,0.28,WUHU216HW,2013-01-05 11:32:00,
2013-01-05 06:37:00,32.0,26.3,30.20,WSW,248,8.1,14.3,79,2.59,,,0.28,WUHU216HW,2013-01-05 11:37:00,
2013-01-05 06:42:00,32.0,26.3,30.20,WNW,293,6.5,14.1,79,2.59,,,0.28,WUHU216HW,2013-01-05 11:42:00,
2013-01-05 06:47:00,32.0,26.3,30.21,West,270,8.1,13.4,79,2.59,,,0.28,WUHU216HW,2013-01-05 11:47:00,
2013-01-05 06:52:00,32.0,26.3,30.21,West,270,7.2,9.8,79,2.59,,,0.28,WUHU216HW,2013-01-05 11:52:00,
2013-01-05 06:57:00,32.0,26.3,30.21,West,270,7.6,9.8,79,2.59,,,0.28,WUHU216HW,2013-01-05 11:57:00,
2013-01-05 07:02:00,32.0,26.3,30.21,WSW,248,7.2,10.5,79,2.59,,,0.32,WUHU216HW,2013-01-05 12:02:00,
2013-01-05 07:07:00,32.0,26.6,30.21,WSW,248,7.4,10.5,80,2.59,,,0.32,WUHU216HW,2013-01-05 12:07:00,
2013-01-05 07:12:00,31.9,26.5,30.21,WSW,248,8.5,10.3,80,2.59,,,0.32,WUHU216HW,2013-01-05 12:12:00,
2013-01-05 07:17:00,31.9,26.5,30.22,WNW,293,5.8,10.7,80,2.59,,,0.32,WUHU216HW,2013-01-05 12:17:00,
2013-01-05 07:22:00,31.9,26.5,30.22,West,270,6.5,11.0,80,2.59,,,0.32,WUHU216HW,2013-01-05 12:22:00,
2013-01-05 07:27:00,31.9,26.5,30.22,NNW,338,10.1,11.0,80,2.59,,,0.32,WUHU216HW,2013-01-05 12:27:00,
2013-01-05 07:32:00,32.0,26.6,30.22,West,270,8.5,11.9,80,2.59,,,0.32,WUHU216HW,2013-01-05 12:32:00,
2013-01-05 07:37:00,31.9,26.5,30.22,WSW,248,7.4,13.4,80,2.59,,,0.32,WUHU216HW,2013-01-05 12:37:00,
2013-01-05 07:42:00,32.0,26.6,30.23,WSW,248,8.5,13.4,80,2.59,,,0.32,WUHU216HW,2013-01-05 12:42:00,
2013-01-05 07:47:00,31.9,26.5,30.23,West,270,8.1,11.2,80,2.59,,,0.32,WUHU216HW,2013-01-05 12:47:00,
2013-01-05 07:52:00,31.9,26.5,30.23,West,270,11.2,11.6,80,2.59,,,0.32,WUHU216HW,2013-01-05 12:52:00,
2013-01-05 07:57:00,31.9,26.5,30.24,West,270,8.7,11.6,80,2.59,,,0.32,WUHU216HW,2013-01-05 12:57:00,
2013-01-05 08:02:00,32.0,26.9,30.24,WSW,248,8.3,10.7,81,2.59,,,0.36,WUHU216HW,2013-01-05 13:02:00,
2013-01-05 08:07:00,32.0,26.9,30.24,West,270,9.6,10.3,81,2.59,,,0.36,WUHU216HW,2013-01-05 13:07:00,
2013-01-05 08:12:00,32.0,26.9,30.24,West,270,9.2,11.9,81,2.59,,,0.36,WUHU216HW,2013-01-05 13:12:00,
2013-01-05 08:17:00,32.0,27.2,30.24,West,270,6.5,11.9,82,2.59,,,0.36,WUHU216HW,2013-01-05 13:17:00,
2013-01-05 08:22:00,32.2,27.1,30.25,WNW,293,6.7,10.7,81,2.59,,,0.36,WUHU216HW,2013-01-05 13:22:00,
2013-01-05 08:27:00,32.4,27.5,30.25,West,270,8.5,11.6,82,2.59,,,0.36,WUHU216HW,2013-01-05 13:27:00,
2013-01-05 08:32:00,32.6,27.5,30.25,West,270,9.2,11.6,81,2.59,,,0.36,WUHU216HW,2013-01-05 13:32:00,
2013-01-05 08:37:00,32.6,27.5,30.25,WSW,248,3.8,11.0,81,2.59,,,0.36,WUHU216HW,2013-01-05 13:37:00,
2013-01-05 08:42:00,32.8,27.5,30.25,WNW,293,8.7,11.0,81,2.59,,,0.36,WUHU216HW,2013-01-05 13:42:00,
2013-01-05 08:47:00,32.9,28.0,30.26,WSW,248,6.3,11.0,82,2.59,,,0.36,WUHU216HW,2013-01-05 13:47:00,
2013-01-05 08:52:00,33.1,28.2,30.26,West,270,6.3,9.8,82,2.59,,,0.36,WUHU216HW,2013-01-05 13:52:00,
2013-01-05 08:57:00,33.3,28.1,30.26,WNW,293,5.1,9.8,81,2.59,,,0.36,WUHU216HW,2013-01-05 13:57:00,
2013-01-05 09:02:00,33.5,28.3,30.26,WNW,293,6.3,10.1,81,2.59,,,0.40,WUHU216HW,2013-01-05 14:02:00,
2013-01-05 09:07:00,33.7,28.4,30.26,WSW,248,5.4,10.1,81,2.59,,,0.40,WUHU216HW,2013-01-05 14:07:00,
2013-01-05 09:12:00,33.8,28.5,30.26,WNW,293,8.5,12.3,81,2.59,,,0.40,WUHU216HW,2013-01-05 14:12:00,
2013-01-05 09:17:00,34.0,28.4,30.26,West,270,6.9,12.3,80,2.59,,,0.40,WUHU216HW,2013-01-05 14:17:00,
2013-01-05 09:22:00,34.0,28.4,30.26,West,270,4.5,11.4,80,2.59,,,0.40,WUHU216HW,2013-01-05 14:22:00,
2013-01-05 09:27:00,34.2,28.6,30.27,West,270,8.1,11.0,80,2.59,,,0.40,WUHU216HW,2013-01-05 14:27:00,
2013-01-05 09:32:00,34.2,28.6,30.26,NNW,338,4.7,11.0,80,2.59,,,0.40,WUHU216HW,2013-01-05 14:32:00,
2013-01-05 09:37:00,34.2,28.6,30.27,WSW,248,5.6,11.6,80,2.59,,,0.40,WUHU216HW,2013-01-05 14:37:00,
2013-01-05 09:42:00,34.4,28.8,30.27,West,270,8.5,12.3,80,2.59,,,0.40,WUHU216HW,2013-01-05 14:42:00,
2013-01-05 09:47:00,34.4,28.4,30.27,WSW,248,10.5,12.3,79,2.59,,,0.40,WUHU216HW,2013-01-05 14:47:00,
2013-01-05 09:52:00,34.6,28.6,30.27,WNW,293,7.6,10.5,79,2.59,,,0.40,WUHU216HW,2013-01-05 14:52:00,
2013-01-05 09:57:00,34.9,29.0,30.28,WNW,293,7.6,10.5,79,2.59,,,0.40,WUHU216HW,2013-01-05 14:57:00,
2013-01-05 10:02:00,35.1,29.2,30.28,NW,315,6.3,9.4,79,2.59,,,0.44,WUHU216HW,2013-01-05 15:02:00,
2013-01-05 10:07:00,35.1,28.9,30.28,West,270,9.2,10.3,78,2.59,,,0.44,WUHU216HW,2013-01-05 15:07:00,
2013-01-05 10:12:00,35.1,28.9,30.28,West,270,3.6,10.3,78,2.59,,,0.44,WUHU216HW,2013-01-05 15:12:00,
2013-01-05 10:17:00,35.1,28.9,30.28,NW,315,5.4,9.4,78,2.59,,,0.44,WUHU216HW,2013-01-05 15:17:00,
2013-01-05 10:22:00,35.3,29.1,30.28,West,270,5.8,7.4,78,2.59,,,0.44,WUHU216HW,2013-01-05 15:22:00,
2013-01-05 10:27:00,35.3,29.1,30.28,WSW,248,4.0,8.5,78,2.59,,,0.44,WUHU216HW,2013-01-05 15:27:00,
2013-01-05 10:32:00,35.1,28.9,30.28,WSW,248,4.0,8.5,78,2.59,,,0.44,WUHU216HW,2013-01-05 15:32:00,
2013-01-05 10:37:00,35.3,29.1,30.28,WSW,248,4.9,8.5,78,2.59,,,0.44,WUHU216HW,2013-01-05 15:37:00,
2013-01-05 10:42:00,35.3,29.1,30.28,WSW,248,6.3,8.5,78,2.59,,,0.44,WUHU216HW,2013-01-05 15:42:00,
2013-01-05 10:47:00,35.5,29.3,30.28,WSW,248,8.5,8.5,78,2.59,,,0.44,WUHU216HW,2013-01-05 15:47:00,
2013-01-05 10:52:00,35.6,29.1,30.28,West,270,3.4,10.3,77,2.59,,,0.44,WUHU216HW,2013-01-05 15:52:00,
2013-01-05 10:57:00,35.6,29.1,30.27,NW,315,7.2,10.3,77,2.59,,,0.44,WUHU216HW,2013-01-05 15:57:00,
2013-01-05 11:02:00,35.6,28.8,30.27,WNW,293,6.9,11.4,76,2.59,,,0.48,WUHU216HW,2013-01-05 16:02:00,
2013-01-05 11:07:00,35.8,29.0,30.27,NW,315,4.3,11.4,76,2.59,,,0.49,WUHU216HW,2013-01-05 16:07:00,
2013-01-05 11:12:00,35.8,29.0,30.27,WNW,293,10.5,10.5,76,2.59,,,0.49,WUHU216HW,2013-01-05 16:12:00,
2013-01-05 11:17:00,36.0,29.2,30.27,West,270,6.7,10.5,76,2.59,,,0.49,WUHU216HW,2013-01-05 16:17:00,
2013-01-05 11:22:00,36.2,29.4,30.27,West,270,6.7,10.5,76,2.59,,,0.49,WUHU216HW,2013-01-05 16:22:00,
2013-01-05 11:27:00,36.5,29.7,30.26,West,270,6.5,9.2,76,2.59,,,0.49,WUHU216HW,2013-01-05 16:27:00,
2013-01-05 11:32:00,37.1,30.3,30.26,West,270,5.6,9.2,76,2.59,,,0.49,WUHU216HW,2013-01-05 16:32:00,
2013-01-05 11:37:00,37.4,30.2,30.26,WSW,248,7.8,9.2,75,2.59,,,0.49,WUHU216HW,2013-01-05 16:37:00,
2013-01-05 11:42:00,37.4,30.2,30.26,WSW,248,6.7,9.8,75,2.59,,,0.49,WUHU216HW,2013-01-05 16:42:00,
2013-01-05 11:47:00,37.8,30.2,30.26,West,270,4.5,9.8,74,2.59,,,0.49,WUHU216HW,2013-01-05 16:47:00,
2013-01-05 11:52:00,37.8,30.2,30.26,West,270,4.5,9.6,74,2.59,,,0.49,WUHU216HW,2013-01-05 16:52:00,
2013-01-05 11:57:00,37.6,29.8,30.25,WSW,248,6.3,9.8,73,2.59,,,0.49,WUHU216HW,2013-01-05 16:57:00,
2013-01-05 12:02:00,37.4,29.3,30.25,West,270,9.8,10.3,72,2.59,,,0.54,WUHU216HW,2013-01-05 17:02:00,
2013-01-05 12:07:00,37.8,29.6,30.25,WSW,248,9.8,10.3,72,2.59,,,0.54,WUHU216HW,2013-01-05 17:07:00,
2013-01-05 12:12:00,38.2,30.0,30.24,West,270,6.0,9.8,72,2.59,,,0.54,WUHU216HW,2013-01-05 17:12:00,
2013-01-05 12:17:00,38.2,30.0,30.24,West,270,3.4,9.8,72,2.59,,,0.54,WUHU216HW,2013-01-05 17:17:00,
2013-01-05 12:22:00,37.8,29.3,30.23,SSW,203,9.4,10.3,71,2.59,,,0.54,WUHU216HW,2013-01-05 17:22:00,
2013-01-05 12:27:00,37.3,29.1,30.23,WNW,293,7.8,11.2,72,2.59,,,0.54,WUHU216HW,2013-01-05 17:27:00,
2013-01-05 12:32:00,37.1,28.9,30.23,West,270,9.2,11.2,72,2.59,,,0.54,WUHU216HW,2013-01-05 17:32:00,
2013-01-05 12:37:00,37.1,29.3,30.23,West,270,6.3,10.3,73,2.59,,,0.54,WUHU216HW,2013-01-05 17:37:00,
2013-01-05 12:42:00,37.1,29.3,30.23,West,270,6.9,10.3,73,2.59,,,0.54,WUHU216HW,2013-01-05 17:42:00,
2013-01-05 12:47:00,36.7,28.9,30.23,West,270,9.6,10.3,73,2.59,,,0.54,WUHU216HW,2013-01-05 17:47:00,
2013-01-05 12:52:00,36.4,28.5,30.23,West,270,8.7,12.1,73,2.59,,,0.54,WUHU216HW,2013-01-05 17:52:00,
2013-01-05 12:57:00,36.0,28.2,30.22,West,270,9.2,12.1,73,2.59,,,0.54,WUHU216HW,2013-01-05 17:57:00,
2013-01-05 13:02:00,35.8,28.3,30.21,West,270,6.7,11.6,74,2.59,,,0.59,WUHU216HW,2013-01-05 18:02:00,
2013-01-05 13:07:00,35.8,28.3,30.21,West,270,5.4,8.7,74,2.59,,,0.59,WUHU216HW,2013-01-05 18:07:00,
2013-01-05 13:12:00,36.0,28.4,30.21,WSW,248,4.3,9.2,74,2.59,,,0.59,WUHU216HW,2013-01-05 18:12:00,
2013-01-05 13:17:00,35.8,28.3,30.21,West,270,6.3,9.2,74,2.59,,,0.59,WUHU216HW,2013-01-05 18:17:00,
2013-01-05 13:22:00,35.6,28.4,30.21,West,270,4.5,8.7,75,2.59,,,0.59,WUHU216HW,2013-01-05 18:22:00,
2013-01-05 13:27:00,35.6,28.4,30.21,West,270,4.0,6.9,75,2.59,,,0.59,WUHU216HW,2013-01-05 18:27:00,
2013-01-05 13:32:00,36.0,28.8,30.21,West,270,7.4,8.5,75,2.59,,,0.59,WUHU216HW,2013-01-05 18:32:00,
2013-01-05 13:37:00,36.0,28.8,30.21,West,270,4.0,8.5,75,2.59,,,0.59,WUHU216HW,2013-01-05 18:37:00,
2013-01-05 13:42:00,36.0,28.8,30.21,WSW,248,5.1,7.4,75,2.59,,,0.59,WUHU216HW,2013-01-05 18:42:00,
2013-01-05 13:47:00,36.0,28.4,30.21,West,270,8.5,9.4,74,2.59,,,0.59,WUHU216HW,2013-01-05 18:47:00,
2013-01-05 13:52:00,35.6,28.1,30.21,WSW,248,5.1,9.4,74,2.59,,,0.59,WUHU216HW,2013-01-05 18:52:00,
2013-01-05 13:57:00,35.6,28.1,30.21,West,270,9.2,9.4,74,2.59,,,0.59,WUHU216HW,2013-01-05 18:57:00,
2013-01-05 14:02:00,35.6,28.1,30.21,WSW,248,5.4,9.2,74,2.59,,,0.64,WUHU216HW,2013-01-05 19:02:00,
2013-01-05 14:07:00,35.6,28.1,30.21,West,270,7.6,11.4,74,2.59,,,0.64,WUHU216HW,2013-01-05 19:07:00,
2013-01-05 14:12:00,35.8,28.3,30.21,WSW,248,7.8,11.4,74,2.59,,,0.64,WUHU216HW,2013-01-05 19:12:00,
2013-01-05 14:17:00,36.0,28.4,30.21,WSW,248,6.9,10.7,74,2.59,,,0.64,WUHU216HW,2013-01-05 19:17:00,
2013-01-05 14:22:00,36.0,28.2,30.21,SW,225,5.6,10.7,73,2.59,,,0.64,WUHU216HW,2013-01-05 19:22:00,
2013-01-05 14:27:00,36.2,28.6,30.21,WSW,248,6.5,7.6,74,2.59,,,0.64,WUHU216HW,2013-01-05 19:27:00,
2013-01-05 14:32:00,36.2,28.4,30.21,WNW,293,4.3,7.6,73,2.59,,,0.64,WUHU216HW,2013-01-05 19:32:00,
2013-01-05 14:37:00,36.4,28.5,30.21,WSW,248,6.0,7.6,73,2.59,,,0.64,WUHU216HW,2013-01-05 19:37:00,
2013-01-05 14:42:00,36.4,28.5,30.21,West,270,4.7,6.9,73,2.59,,,0.64,WUHU216HW,2013-01-05 19:42:00,
2013-01-05 14:47:00,36.4,28.5,30.20,WNW,293,6.0,7.4,73,2.59,,,0.64,WUHU216HW,2013-01-05 19:47:00,
2013-01-05 14:52:00,36.4,28.5,30.20,WNW,293,5.1,8.1,73,2.59,,,0.64,WUHU216HW,2013-01-05 19:52:00,
2013-01-05 14:57:00,36.4,28.5,30.20,WNW,293,3.4,8.1,73,2.59,,,0.64,WUHU216HW,2013-01-05 19:57:00,
2013-01-05 15:02:00,36.4,28.5,30.20,West,270,2.7,6.5,73,2.59,,,0.70,WUHU216HW,2013-01-05 20:02:00,
2013-01-05 15:07:00,36.4,28.5,30.20,West,270,4.0,6.5,73,2.59,,,0.71,WUHU216HW,2013-01-05 20:07:00,
2013-01-05 15:12:00,36.4,28.5,30.21,West,270,4.5,6.3,73,2.59,,,0.71,WUHU216HW,2013-01-05 20:12:00,
2013-01-05 15:17:00,36.4,28.5,30.20,West,270,4.0,4.7,73,2.59,,,0.71,WUHU216HW,2013-01-05 20:17:00,
2013-01-05 15:22:00,36.4,28.5,30.20,West,270,4.0,4.7,73,2.59,,,0.71,WUHU216HW,2013-01-05 20:22:00,
2013-01-05 15:27:00,36.4,28.5,30.20,West,270,4.9,5.1,73,2.59,,,0.71,WUHU216HW,2013-01-05 20:27:00,
2013-01-05 15:32:00,36.4,28.5,30.20,West,270,3.8,5.4,73,2.59,,,0.71,WUHU216HW,2013-01-05 20:32:00,
2013-01-05 15:37:00,36.2,28.4,30.20,WSW,248,4.0,5.4,73,2.59,,,0.71,WUHU216HW,2013-01-05 20:37:00,
2013-01-05 15:42:00,36.4,28.5,30.20,West,270,5.6,5.6,73,2.59,,,0.71,WUHU216HW,2013-01-05 20:42:00,
2013-01-05 15:47:00,36.2,28.4,30.19,WSW,248,2.7,5.6,73,2.59,,,0.71,WUHU216HW,2013-01-05 20:47:00,
2013-01-05 15:52:00,36.2,28.4,30.19,West,270,4.7,5.6,73,2.59,,,0.71,WUHU216HW,2013-01-05 20:52:00,
2013-01-05 15:57:00,35.8,28.0,30.19,West,270,3.6,5.8,73,2.59,,,0.71,WUHU216HW,2013-01-05 20:57:00,
2013-01-05 16:02:00,35.6,27.8,30.19,WSW,248,3.1,5.8,73,2.59,,,0.77,WUHU216HW,2013-01-05 21:02:00,
2013-01-05 16:07:00,35.5,27.6,30.18,SSW,203,2.9,5.4,73,2.59,,,0.77,WUHU216HW,2013-01-05 21:07:00,
2013-01-05 16:12:00,35.1,27.3,30.18,West,270,4.0,6.3,73,2.59,,,0.77,WUHU216HW,2013-01-05 21:12:00,
2013-01-05 16:17:00,34.9,27.1,30.18,WSW,248,3.4,6.3,73,2.59,,,0.77,WUHU216HW,2013-01-05 21:17:00,
2013-01-05 16:22:00,34.9,27.1,30.18,WNW,293,1.8,4.7,73,2.59,,,0.77,WUHU216HW,2013-01-05 21:22:00,
2013-01-05 16:27:00,34.9,27.1,30.18,SW,225,2.5,4.7,73,2.59,,,0.77,WUHU216HW,2013-01-05 21:27:00,
2013-01-05 16:32:00,34.7,26.9,30.17,West,270,1.1,4.0,73,2.59,,,0.77,WUHU216HW,2013-01-05 21:32:00,
2013-01-05 16:37:00,34.7,26.9,30.17,WSW,248,3.4,5.4,73,2.59,,,0.77,WUHU216HW,2013-01-05 21:37:00,
2013-01-05 16:42:00,34.6,26.7,30.17,SSW,203,5.4,6.0,73,2.59,,,0.77,WUHU216HW,2013-01-05 21:42:00,
2013-01-05 16:47:00,34.4,26.6,30.17,West,270,4.0,6.5,73,2.59,,,0.77,WUHU216HW,2013-01-05 21:47:00,
2013-01-05 16:52:00,34.2,26.0,30.17,WSW,248,1.8,6.5,72,2.59,,,0.77,WUHU216HW,2013-01-05 21:52:00,
2013-01-05 16:57:00,34.2,26.0,30.17,South,180,5.4,5.4,72,2.59,,,0.77,WUHU216HW,2013-01-05 21:57:00,
2013-01-05 17:02:00,34.2,26.0,30.18,West,270,5.6,5.8,72,2.59,,,0.83,WUHU216HW,2013-01-05 22:02:00,
2013-01-05 17:07:00,34.0,25.8,30.18,WSW,248,4.7,5.8,72,2.59,,,0.83,WUHU216HW,2013-01-05 22:07:00,
2013-01-05 17:12:00,34.0,25.8,30.18,SW,225,5.6,7.4,72,2.59,,,0.83,WUHU216HW,2013-01-05 22:12:00,
2013-01-05 17:17:00,33.8,25.7,30.17,SW,225,2.2,7.4,72,2.59,,,0.83,WUHU216HW,2013-01-05 22:17:00,
2013-01-05 17:22:00,33.7,25.5,30.16,South,180,1.6,6.3,72,2.59,,,0.83,WUHU216HW,2013-01-05 22:22:00,
2013-01-05 17:27:00,33.5,25.4,30.16,West,270,0.9,5.1,72,2.59,,,0.83,WUHU216HW,2013-01-05 22:27:00,
2013-01-05 17:32:00,33.3,24.8,30.16,West,270,4.0,5.1,71,2.59,,,0.83,WUHU216HW,2013-01-05 22:32:00,
2013-01-05 17:37:00,32.9,24.8,30.17,West,270,1.3,4.7,72,2.59,,,0.83,WUHU216HW,2013-01-05 22:37:00,
2013-01-05 17:42:00,32.6,24.6,30.17,WSW,248,0.7,4.0,72,2.59,,,0.83,WUHU216HW,2013-01-05 22:42:00,
2013-01-05 17:47:00,32.2,24.2,30.17,West,270,2.5,3.4,72,2.59,,,0.83,WUHU216HW,2013-01-05 22:47:00,
2013-01-05 17:52:00,32.0,24.0,30.17,SW,225,1.1,3.4,72,2.59,,,0.83,WUHU216HW,2013-01-05 22:52:00,
2013-01-05 17:57:00,31.7,23.7,30.18,SW,225,4.0,5.8,72,2.59,,,0.83,WUHU216HW,2013-01-05 22:57:00,
2013-01-05 18:02:00,31.5,23.5,30.18,SSW,203,1.8,5.8,72,2.59,,,0.89,WUHU216HW,2013-01-05 23:02:00,
2013-01-05 18:07:00,31.3,23.3,30.17,WSW,248,1.8,4.9,72,2.59,,,0.89,WUHU216HW,2013-01-05 23:07:00,
2013-01-05 18:12:00,31.1,23.1,30.16,West,270,0.9,3.6,72,2.59,,,0.89,WUHU216HW,2013-01-05 23:12:00,
2013-01-05 18:17:00,31.0,23.3,30.16,SW,225,1.8,3.6,73,2.59,,,0.89,WUHU216HW,2013-01-05 23:17:00,
2013-01-05 18:22:00,31.0,23.3,30.16,SW,225,1.3,2.5,73,2.59,,,0.89,WUHU216HW,2013-01-05 23:22:00,
2013-01-05 18:27:00,31.0,23.3,30.16,SSW,203,0.9,2.5,73,2.59,,,0.89,WUHU216HW,2013-01-05 23:27:00,
2013-01-05 18:32:00,30.8,23.1,30.15,SW,225,0.9,1.8,73,2.59,,,0.89,WUHU216HW,2013-01-05 23:32:00,
2013-01-05 18:37:00,30.8,23.1,30.16,SW,225,0.9,1.8,73,2.59,,,0.89,WUHU216HW,2013-01-05 23:37:00,
2013-01-05 18:42:00,30.6,23.0,30.15,WSW,248,0.4,1.8,73,2.59,,,0.89,WUHU216HW,2013-01-05 23:42:00,
2013-01-05 18:47:00,30.6,23.0,30.15,SSW,203,2.0,2.0,73,2.59,,,0.89,WUHU216HW,2013-01-05 23:47:00,
2013-01-05 18:52:00,30.6,23.0,30.15,SW,225,1.6,2.5,73,2.59,,,0.89,WUHU216HW,2013-01-05 23:52:00,
2013-01-05 18:57:00,30.6,23.0,30.15,WSW,248,2.0,2.5,73,2.59,,,0.89,WUHU216HW,2013-01-05 23:57:00,
2013-01-05 19:02:00,30.4,22.8,30.14,SW,225,2.2,2.9,73,2.59,,,0.95,WUHU216HW,2013-01-06 00:02:00,
2013-01-05 19:07:00,30.2,22.9,30.14,WSW,248,1.8,2.9,74,2.59,,,0.95,WUHU216HW,2013-01-06 00:07:00,
2013-01-05 19:12:00,30.1,22.8,30.14,SW,225,2.0,3.4,74,2.59,,,0.95,WUHU216HW,2013-01-06 00:12:00,
2013-01-05 19:17:00,30.1,22.8,30.14,WSW,248,1.8,3.6,74,2.59,,,0.95,WUHU216HW,2013-01-06 00:17:00,
2013-01-05 19:22:00,29.9,22.6,30.13,SW,225,2.5,3.6,74,2.59,,,0.95,WUHU216HW,2013-01-06 00:22:00,
2013-01-05 19:27:00,29.9,22.6,30.13,SW,225,4.7,4.7,74,2.59,,,0.95,WUHU216HW,2013-01-06 00:27:00,
2013-01-05 19:32:00,30.1,22.8,30.14,West,270,4.5,6.7,74,2.59,,,0.95,WUHU216HW,2013-01-06 00:32:00,
2013-01-05 19:37:00,30.1,22.8,30.14,WSW,248,2.9,6.7,74,2.59,,,0.95,WUHU216HW,2013-01-06 00:37:00,
2013-01-05 19:42:00,30.2,22.9,30.14,WSW,248,2.2,7.2,74,2.59,,,0.95,WUHU216HW,2013-01-06 00:42:00,
2013-01-05 19:47:00,30.2,22.9,30.13,SW,225,3.4,7.2,74,2.59,,,0.95,WUHU216HW,2013-01-06 00:47:00,
2013-01-05 19:52:00,30.2,23.2,30.13,SW,225,4.0,4.9,75,2.59,,,0.95,WUHU216HW,2013-01-06 00:52:00,
2013-01-05 19:57:00,30.2,23.2,30.13,South,180,2.2,4.7,75,2.59,,,0.95,WUHU216HW,2013-01-06 00:57:00,
2013-01-05 20:02:00,30.4,23.4,30.14,West,270,2.7,5.4,75,2.59,,,1.01,WUHU216HW,2013-01-06 01:02:00,
2013-01-05 20:07:00,30.4,23.0,30.14,West,270,1.8,5.4,74,2.59,,,1.01,WUHU216HW,2013-01-06 01:07:00,
2013-01-05 20:12:00,30.6,23.2,30.14,WSW,248,3.4,5.1,74,2.59,,,1.01,WUHU216HW,2013-01-06 01:12:00,
2013-01-05 20:17:00,30.6,23.2,30.14,West,270,3.8,5.1,74,2.59,,,1.01,WUHU216HW,2013-01-06 01:17:00,
2013-01-05 20:22:00,30.6,23.2,30.13,West,270,2.5,5.4,74,2.59,,,1.01,WUHU216HW,2013-01-06 01:22:00,
2013-01-05 20:28:00,30.6,23.2,30.13,West,270,4.5,6.3,74,2.59,,,1.01,WUHU216HW,2013-01-06 01:28:00,
2013-01-05 20:32:00,30.8,23.4,30.13,SW,225,3.4,6.3,74,2.59,,,1.01,WUHU216HW,2013-01-06 01:32:00,
2013-01-05 20:38:00,31.0,23.6,30.12,WSW,248,4.0,6.3,74,2.59,,,1.01,WUHU216HW,2013-01-06 01:38:00,
2013-01-05 20:43:00,31.1,23.8,30.13,WSW,248,7.6,7.6,74,2.59,,,1.01,WUHU216HW,2013-01-06 01:43:00,
2013-01-05 20:48:00,31.1,23.8,30.12,WSW,248,4.3,10.1,74,2.59,,,1.01,WUHU216HW,2013-01-06 01:48:00,
2013-01-05 20:53:00,31.3,23.9,30.12,SSE,158,4.3,10.1,74,2.59,,,1.01,WUHU216HW,2013-01-06 01:53:00,
2013-01-05 20:58:00,31.3,23.9,30.10,West,270,3.6,7.2,74,2.59,,,1.01,WUHU216HW,2013-01-06 01:58:00,
2013-01-05 21:03:00,31.3,23.9,30.10,NW,315,4.0,7.6,74,2.59,,,1.07,WUHU216HW,2013-01-06 02:03:00,
2013-01-05 21:08:00,31.5,24.1,30.10,West,270,3.4,9.2,74,2.59,,,1.07,WUHU216HW,2013-01-06 02:08:00,
2013-01-05 21:13:00,31.7,24.3,30.09,WSW,248,4.0,9.2,74,2.59,,,1.07,WUHU216HW,2013-01-06 02:13:00,
2013-01-05 21:18:00,31.7,24.3,30.08,South,180,4.7,7.6,74,2.59,,,1.07,WUHU216HW,2013-01-06 02:18:00,
2013-01-05 21:23:00,31.9,24.5,30.08,SW,225,4.7,7.6,74,2.59,,,1.07,WUHU216HW,2013-01-06 02:23:00,
2013-01-05 21:28:00,32.0,24.4,30.08,WSW,248,4.9,7.2,73,2.59,,,1.07,WUHU216HW,2013-01-06 02:28:00,
2013-01-05 21:33:00,32.0,24.4,30.08,WSW,248,5.4,6.3,73,2.59,,,1.07,WUHU216HW,2013-01-06 02:33:00,
2013-01-05 21:38:00,32.0,24.4,30.08,West,270,4.0,8.5,73,2.59,,,1.07,WUHU216HW,2013-01-06 02:38:00,
2013-01-05 21:43:00,32.2,24.6,30.08,West,270,3.8,8.5,73,2.59,,,1.07,WUHU216HW,2013-01-06 02:43:00,
2013-01-05 21:48:00,32.2,24.6,30.08,West,270,5.6,9.8,73,2.59,,,1.07,WUHU216HW,2013-01-06 02:48:00,
2013-01-05 21:53:00,32.2,24.6,30.07,West,270,4.0,9.8,73,2.59,,,1.07,WUHU216HW,2013-01-06 02:53:00,
2013-01-05 21:58:00,32.4,24.7,30.08,SW,225,6.3,9.2,73,2.59,,,1.07,WUHU216HW,2013-01-06 02:58:00,
2013-01-05 22:03:00,32.4,24.7,30.07,WNW,293,4.3,9.2,73,2.59,,,1.13,WUHU216HW,2013-01-06 03:03:00,
2013-01-05 22:08:00,32.6,24.8,30.08,WSW,248,8.3,8.5,73,2.59,,,1.13,WUHU216HW,2013-01-06 03:08:00,
2013-01-05 22:13:00,32.6,24.8,30.08,West,270,11.0,11.2,73,2.59,,,1.13,WUHU216HW,2013-01-06 03:13:00,
2013-01-05 22:18:00,32.8,24.7,30.08,WSW,248,5.4,11.2,72,2.59,,,1.13,WUHU216HW,2013-01-06 03:18:00,
2013-01-05 22:23:00,32.8,24.7,30.08,South,180,9.2,14.3,72,2.59,,,1.13,WUHU216HW,2013-01-06 03:23:00,
2013-01-05 22:28:00,32.9,24.8,30.08,West,270,5.8,14.3,72,2.59,,,1.13,WUHU216HW,2013-01-06 03:28:00,
2013-01-05 22:33:00,33.1,25.0,30.07,WNW,293,7.4,13.4,72,2.59,,,1.13,WUHU216HW,2013-01-06 03:33:00,
2013-01-05 22:38:00,33.3,25.2,30.07,WSW,248,6.9,13.4,72,2.59,,,1.13,WUHU216HW,2013-01-06 03:38:00,
2013-01-05 22:43:00,33.3,25.2,30.06,WSW,248,8.7,11.6,72,2.59,,,1.13,WUHU216HW,2013-01-06 03:43:00,
2013-01-05 22:48:00,33.5,25.4,30.06,WSW,248,13.0,13.0,72,2.59,,,1.13,WUHU216HW,2013-01-06 03:48:00,
2013-01-05 22:53:00,33.5,25.4,30.05,West,270,9.6,13.0,72,2.59,,,1.13,WUHU216HW,2013-01-06 03:53:00,
2013-01-05 22:58:00,33.5,25.4,30.05,SSW,203,3.4,13.0,72,2.59,,,1.13,WUHU216HW,2013-01-06 03:58:00,
2013-01-05 23:03:00,33.7,25.2,30.05,West,270,7.8,12.8,71,2.59,,,1.19,WUHU216HW,2013-01-06 04:03:00,
2013-01-05 23:08:00,33.8,25.4,30.05,West,270,6.9,12.8,71,2.59,,,1.19,WUHU216HW,2013-01-06 04:08:00,
2013-01-05 23:13:00,34.0,25.2,30.05,WSW,248,5.6,11.2,70,2.59,,,1.19,WUHU216HW,2013-01-06 04:13:00,
2013-01-05 23:18:00,34.2,25.4,30.05,West,270,10.5,11.6,70,2.59,,,1.19,WUHU216HW,2013-01-06 04:18:00,
2013-01-05 23:23:00,34.2,25.4,30.05,WSW,248,12.8,13.0,70,2.59,,,1.19,WUHU216HW,2013-01-06 04:23:00,
2013-01-05 23:28:00,34.4,25.9,30.04,WSW,248,6.7,13.0,71,2.59,,,1.19,WUHU216HW,2013-01-06 04:28:00,
2013-01-05 23:33:00,34.4,25.9,30.04,West,270,4.0,12.8,71,2.59,,,1.19,WUHU216HW,2013-01-06 04:33:00,
2013-01-05 23:38:00,34.2,25.4,30.04,West,270,6.9,10.5,70,2.59,,,1.19,WUHU216HW,2013-01-06 04:38:00,
2013-01-05 23:43:00,34.4,25.9,30.04,West,270,8.3,10.5,71,2.59,,,1.19,WUHU216HW,2013-01-06 04:43:00,
2013-01-05 23:48:00,34.4,25.9,30.03,WSW,248,6.9,11.2,71,2.59,,,1.19,WUHU216HW,2013-01-06 04:48:00,
2013-01-05 23:53:00,34.4,25.9,30.03,West,270,7.6,11.2,71,2.59,,,1.19,WUHU216HW,2013-01-06 04:53:00,
2013-01-05 23:58:00,34.4,25.9,30.04,West,270,8.5,10.7,71,2.59,,,1.19,WUHU216HW,2013-01-06 04:58:00,